| time (UTC) | temp C | wind direction | speed KPH | gust KPH | rain 1hr cm | rain 24hr cm | rain mn cm | humidity % | barometer mb |
| 20260506032002 | 6 | 26 | 0.0 | 0.0 | 0.00 | 0.00 | 0.00 | 78 | 1015.9 |
| 20260506031801 | 6 | 25 | 0.0 | 0.0 | 0.00 | 0.00 | 0.00 | 78 | 1015.8 |
| 20260506031401 | 6 | 92 | 0.0 | 4.8 | 0.00 | 0.00 | 0.00 | 79 | 1015.9 |
| 20260506031202 | 6 | 111 | 0.0 | 4.8 | 0.00 | 0.00 | 0.00 | 79 | 1015.9 |
| 20260506031002 | 6 | 111 | 0.0 | 4.8 | 0.00 | 0.00 | 0.00 | 78 | 1015.8 |
| 20260506030802 | 6 | 112 | 1.6 | 4.8 | 0.00 | 0.00 | 0.00 | 78 | 1015.8 |
| 20260506030601 | 6 | 16 | 0.0 | 0.0 | 0.00 | 0.00 | 0.00 | 78 | 1015.9 |
| 20260506030404 | 6 | 350 | 0.0 | 0.0 | 0.00 | 0.00 | 0.00 | 78 | 1015.8 |
| 20260506030202 | 6 | 352 | 0.0 | 0.0 | 0.00 | 0.00 | 0.00 | 78 | 1015.9 |
| 20260506030005 | 6 | 352 | 0.0 | 1.6 | 0.00 | 0.00 | 0.00 | 78 | 1015.9 |
| 20260506025803 | 6 | 59 | 0.0 | 1.6 | 0.00 | 0.00 | 0.00 | 78 | 1015.8 |
| 20260506025601 | 6 | 87 | 0.0 | 1.6 | 0.00 | 0.00 | 0.00 | 78 | 1015.9 |
| 20260506025403 | 6 | 87 | 0.0 | 1.6 | 0.00 | 0.00 | 0.00 | 78 | 1015.8 |
| 20260506025201 | 6 | 91 | 0.0 | 1.6 | 0.00 | 0.00 | 0.00 | 78 | 1015.8 |
| 20260506024802 | 6 | 11 | 0.0 | 3.2 | 0.00 | 0.00 | 0.00 | 78 | 1015.9 |
| 20260506024603 | 6 | 11 | 0.0 | 3.2 | 0.00 | 0.00 | 0.00 | 77 | 1015.9 |
| 20260506024401 | 6 | 11 | 0.0 | 3.2 | 0.00 | 0.00 | 0.00 | 77 | 1015.8 |
| 20260506024204 | 6 | 342 | 0.0 | 3.2 | 0.00 | 0.00 | 0.00 | 77 | 1015.8 |
| 20260506024002 | 6 | 358 | 1.6 | 3.2 | 0.00 | 0.00 | 0.00 | 78 | 1015.8 |
| 20260506023803 | 6 | 59 | 0.0 | 4.8 | 0.00 | 0.00 | 0.00 | 78 | 1015.9 |
| 20260506023601 | 6 | 59 | 0.0 | 4.8 | 0.00 | 0.00 | 0.00 | 77 | 1015.9 |
| 20260506023201 | 6 | 41 | 1.6 | 6.4 | 0.00 | 0.00 | 0.00 | 77 | 1015.8 |
| 20260506023003 | 6 | 139 | 0.0 | 6.4 | 0.00 | 0.00 | 0.00 | 77 | 1015.8 |
| 20260506022203 | 6 | 350 | 0.0 | 4.8 | 0.00 | 0.00 | 0.00 | 77 | 1015.8 |
| 20260506022004 | 6 | 134 | 1.6 | 4.8 | 0.00 | 0.00 | 0.00 | 77 | 1015.8 |
| 20260506021803 | 6 | 77 | 1.6 | 4.8 | 0.00 | 0.00 | 0.00 | 77 | 1015.7 |
| 20260506021403 | 6 | 80 | 0.0 | 9.7 | 0.00 | 0.00 | 0.00 | 77 | 1015.7 |
| 20260506021201 | 6 | 27 | 1.6 | 9.7 | 0.00 | 0.00 | 0.00 | 77 | 1015.7 |
| 20260506021004 | 6 | 113 | 1.6 | 9.7 | 0.00 | 0.00 | 0.00 | 76 | 1015.7 |
| 20260506020802 | 6 | 82 | 0.0 | 6.4 | 0.00 | 0.00 | 0.00 | 76 | 1015.8 |
| 20260506020402 | 6 | 30 | 0.0 | 6.4 | 0.00 | 0.00 | 0.00 | 77 | 1015.7 |
| 20260506020203 | 7 | 35 | 1.6 | 6.4 | 0.00 | 0.00 | 0.00 | 76 | 1015.7 |
| 20260506020005 | 7 | 123 | 1.6 | 4.8 | 0.00 | 0.00 | 0.00 | 76 | 1015.7 |
| 20260506015602 | 7 | 32 | 1.6 | 4.8 | 0.00 | 0.00 | 0.00 | 76 | 1015.8 |
| 20260506015403 | 7 | 6 | 0.0 | 3.2 | 0.00 | 0.00 | 0.00 | 77 | 1015.7 |
| 20260506015202 | 7 | 6 | 0.0 | 3.2 | 0.00 | 0.00 | 0.00 | 76 | 1015.6 |
| 20260506015004 | 7 | 349 | 0.0 | 4.8 | 0.00 | 0.00 | 0.00 | 76 | 1015.6 |
| 20260506014603 | 7 | 176 | 0.0 | 4.8 | 0.00 | 0.00 | 0.00 | 76 | 1015.7 |
| 20260506014402 | 7 | 34 | 1.6 | 4.8 | 0.00 | 0.00 | 0.00 | 76 | 1015.7 |
| 20260506014003 | 7 | 22 | 1.6 | 4.8 | 0.00 | 0.00 | 0.00 | 76 | 1015.7 |
| 20260506013804 | 7 | 60 | 0.0 | 4.8 | 0.00 | 0.00 | 0.00 | 76 | 1015.8 |
| 20260506013403 | 7 | 312 | 1.6 | 4.8 | 0.00 | 0.00 | 0.00 | 77 | 1015.6 |
| 20260506013004 | 7 | 120 | 0.0 | 6.4 | 0.00 | 0.00 | 0.00 | 77 | 1015.7 |
| 20260506012802 | 7 | 120 | 0.0 | 6.4 | 0.00 | 0.00 | 0.00 | 77 | 1015.7 |
| 20260506012604 | 7 | 71 | 1.6 | 6.4 | 0.00 | 0.00 | 0.00 | 77 | 1015.7 |
| 20260506012402 | 7 | 77 | 3.2 | 6.4 | 0.00 | 0.00 | 0.00 | 77 | 1015.7 |
| 20260506012204 | 7 | 127 | 3.2 | 6.4 | 0.00 | 0.00 | 0.00 | 77 | 1015.8 |
| 20260506012003 | 7 | 80 | 1.6 | 6.4 | 0.00 | 0.00 | 0.00 | 78 | 1015.7 |
| 20260506011804 | 7 | 113 | 1.6 | 6.4 | 0.00 | 0.00 | 0.00 | 78 | 1015.8 |
| 20260506011601 | 7 | 86 | 0.0 | 8.0 | 0.00 | 0.00 | 0.00 | 78 | 1015.8 |
| 20260506011402 | 7 | 84 | 0.0 | 8.0 | 0.00 | 0.00 | 0.00 | 78 | 1015.9 |
| 20260506011202 | 7 | 50 | 1.6 | 8.0 | 0.00 | 0.00 | 0.00 | 77 | 1015.9 |
| 20260506011005 | 7 | 78 | 3.2 | 8.0 | 0.00 | 0.00 | 0.00 | 78 | 1015.8 |
| 20260506010802 | 7 | 96 | 0.0 | 6.4 | 0.00 | 0.00 | 0.00 | 78 | 1015.9 |
| 20260506010603 | 7 | 153 | 0.0 | 6.4 | 0.00 | 0.00 | 0.00 | 78 | 1015.7 |
| 20260506010402 | 7 | 137 | 0.0 | 6.4 | 0.00 | 0.00 | 0.00 | 78 | 1015.7 |
| 20260506010203 | 7 | 83 | 1.6 | 6.4 | 0.00 | 0.00 | 0.00 | 77 | 1015.8 |
| 20260506010005 | 7 | 110 | 1.6 | 6.4 | 0.00 | 0.00 | 0.00 | 78 | 1015.8 |
| 20260506005803 | 7 | 93 | 0.0 | 6.4 | 0.00 | 0.00 | 0.00 | 77 | 1015.8 |
| 20260506005602 | 7 | 77 | 0.0 | 6.4 | 0.00 | 0.00 | 0.00 | 77 | 1015.7 |
| 20260506005202 | 7 | 117 | 1.6 | 6.4 | 0.00 | 0.00 | 0.00 | 77 | 1015.7 |
| 20260506005005 | 7 | 86 | 0.0 | 9.7 | 0.00 | 0.00 | 0.00 | 77 | 1015.7 |
| 20260506004603 | 7 | 86 | 1.6 | 9.7 | 0.00 | 0.00 | 0.00 | 77 | 1015.7 |
| 20260506004402 | 7 | 91 | 3.2 | 9.7 | 0.00 | 0.00 | 0.00 | 77 | 1015.7 |
| 20260506004203 | 7 | 72 | 1.6 | 4.8 | 0.00 | 0.00 | 0.00 | 77 | 1015.8 |
| 20260506004003 | 7 | 100 | 0.0 | 4.8 | 0.00 | 0.00 | 0.00 | 77 | 1015.8 |
| 20260506003602 | 7 | 109 | 0.0 | 4.8 | 0.00 | 0.00 | 0.00 | 77 | 1015.8 |
| 20260506003404 | 7 | 89 | 0.0 | 4.8 | 0.00 | 0.00 | 0.00 | 76 | 1015.8 |
| 20260506003203 | 7 | 158 | 0.0 | 4.8 | 0.00 | 0.00 | 0.00 | 76 | 1015.9 |
| 20260506002804 | 7 | 70 | 1.6 | 8.0 | 0.00 | 0.00 | 0.00 | 76 | 1015.9 |
| 20260506002602 | 7 | 358 | 1.6 | 8.0 | 0.00 | 0.00 | 0.00 | 76 | 1015.9 |
| 20260506002402 | 7 | 148 | 1.6 | 9.7 | 0.00 | 0.00 | 0.00 | 76 | 1015.8 |
| 20260506002201 | 7 | 154 | 1.6 | 9.7 | 0.00 | 0.00 | 0.00 | 76 | 1015.8 |
| 20260506002002 | 7 | 144 | 1.6 | 9.7 | 0.00 | 0.00 | 0.00 | 76 | 1015.8 |
| 20260506001802 | 7 | 75 | 3.2 | 14.5 | 0.00 | 0.00 | 0.00 | 76 | 1015.8 |
| 20260506001402 | 7 | 139 | 3.2 | 14.5 | 0.00 | 0.00 | 0.00 | 76 | 1015.8 |
| 20260506001202 | 7 | 50 | 3.2 | 14.5 | 0.00 | 0.00 | 0.00 | 75 | 1015.9 |
| 20260506001003 | 7 | 89 | 3.2 | 14.5 | 0.00 | 0.00 | 0.00 | 75 | 1015.8 |
| 20260506000602 | 7 | 129 | 3.2 | 14.5 | 0.00 | 0.00 | 0.00 | 75 | 1015.8 |
| 20260506000401 | 7 | 238 | 1.6 | 14.5 | 0.00 | 0.00 | 0.00 | 75 | 1015.7 |
| 20260506000204 | 7 | 88 | 0.0 | 14.5 | 0.00 | 0.00 | 0.00 | 75 | 1015.7 |
| 20260506000005 | 7 | 65 | 4.8 | 14.5 | 0.00 | 0.00 | 0.00 | 75 | 1015.8 |
| 20260505235803 | 7 | 129 | 3.2 | 14.5 | 0.00 | 0.00 | 0.00 | 75 | 1015.8 |
| 20260505235601 | 7 | 349 | 4.8 | 11.3 | 0.00 | 0.00 | 0.00 | 75 | 1015.7 |
| 20260505235403 | 7 | 234 | 4.8 | 11.3 | 0.00 | 0.00 | 0.00 | 75 | 1015.7 |
| 20260505235201 | 7 | 126 | 3.2 | 14.5 | 0.00 | 0.00 | 0.00 | 75 | 1015.9 |
| 20260505235003 | 7 | 4 | 3.2 | 14.5 | 0.00 | 0.00 | 0.00 | 75 | 1015.8 |
| 20260505234800 | 7 | 130 | 3.2 | 14.5 | 0.00 | 0.00 | 0.00 | 75 | 1015.7 |
| 20260505234602 | 7 | 127 | 3.2 | 14.5 | 0.00 | 0.00 | 0.00 | 75 | 1015.7 |
| 20260505234202 | 7 | 106 | 3.2 | 19.3 | 0.00 | 0.00 | 0.00 | 75 | 1015.8 |
| 20260505234002 | 7 | 87 | 6.4 | 19.3 | 0.00 | 0.00 | 0.00 | 75 | 1015.8 |
| 20260505233802 | 7 | 39 | 6.4 | 19.3 | 0.00 | 0.00 | 0.00 | 75 | 1015.8 |
| 20260505233601 | 7 | 82 | 4.8 | 16.1 | 0.00 | 0.00 | 0.00 | 75 | 1015.8 |
| 20260505233402 | 7 | 319 | 3.2 | 16.1 | 0.00 | 0.00 | 0.00 | 75 | 1015.9 |
| 20260505233004 | 7 | 131 | 1.6 | 12.9 | 0.00 | 0.00 | 0.00 | 76 | 1016.0 |
| 20260505232801 | 7 | 203 | 3.2 | 12.9 | 0.00 | 0.00 | 0.00 | 76 | 1015.9 |
| 20260505232600 | 7 | 79 | 3.2 | 14.5 | 0.00 | 0.00 | 0.00 | 76 | 1015.9 |
| 20260505232402 | 7 | 289 | 1.6 | 14.5 | 0.00 | 0.00 | 0.00 | 76 | 1015.8 |
| 20260505232200 | 7 | 82 | 1.6 | 14.5 | 0.00 | 0.00 | 0.00 | 76 | 1016.0 |
| 20260505232002 | 7 | 102 | 1.6 | 14.5 | 0.00 | 0.00 | 0.00 | 76 | 1015.8 |
| 20260505231801 | 7 | 102 | 4.8 | 14.5 | 0.00 | 0.00 | 0.00 | 76 | 1015.9 |
| 20260505231601 | 7 | 65 | 3.2 | 11.3 | 0.00 | 0.00 | 0.00 | 77 | 1015.8 |
| 20260505231201 | 7 | 77 | 3.2 | 11.3 | 0.00 | 0.00 | 0.00 | 77 | 1015.8 |
| 20260505231001 | 7 | 205 | 1.6 | 11.3 | 0.00 | 0.00 | 0.00 | 77 | 1015.7 |
| 20260505230800 | 7 | 106 | 1.6 | 11.3 | 0.00 | 0.00 | 0.00 | 77 | 1015.8 |
| 20260505230602 | 7 | 345 | 3.2 | 12.9 | 0.00 | 0.00 | 0.00 | 77 | 1015.8 |
| 20260505230401 | 7 | 146 | 3.2 | 12.9 | 0.00 | 0.00 | 0.00 | 77 | 1015.8 |
| 20260505230205 | 7 | 29 | 1.6 | 12.9 | 0.00 | 0.00 | 0.00 | 77 | 1015.8 |
| 20260505225804 | 7 | 39 | 3.2 | 9.7 | 0.00 | 0.00 | 0.00 | 76 | 1015.9 |
| 20260505225603 | 7 | 139 | 1.6 | 9.7 | 0.00 | 0.00 | 0.00 | 76 | 1015.8 |
| 20260505225004 | 7 | 76 | 3.2 | 16.1 | 0.00 | 0.00 | 0.00 | 76 | 1015.9 |
| 20260505224603 | 7 | 110 | 4.8 | 16.1 | 0.00 | 0.00 | 0.00 | 76 | 1015.9 |
| 20260505224403 | 7 | 86 | 6.4 | 16.1 | 0.00 | 0.00 | 0.00 | 76 | 1015.8 |
| 20260505224203 | 7 | 337 | 1.6 | 16.1 | 0.00 | 0.00 | 0.00 | 76 | 1015.9 |
| 20260505224004 | 7 | 123 | 1.6 | 16.1 | 0.00 | 0.00 | 0.00 | 76 | 1016.0 |
| 20260505223804 | 7 | 3 | 6.4 | 16.1 | 0.00 | 0.00 | 0.00 | 76 | 1015.9 |
| 20260505223603 | 7 | 82 | 6.4 | 16.1 | 0.00 | 0.00 | 0.00 | 76 | 1016.0 |
| 20260505223404 | 7 | 264 | 3.2 | 8.0 | 0.00 | 0.00 | 0.00 | 76 | 1016.0 |
| 20260505223203 | 7 | 126 | 1.6 | 11.3 | 0.00 | 0.00 | 0.00 | 76 | 1016.0 |
| 20260505223005 | 7 | 91 | 1.6 | 11.3 | 0.00 | 0.00 | 0.00 | 76 | 1015.9 |
| 20260505222804 | 7 | 60 | 1.6 | 11.3 | 0.00 | 0.00 | 0.00 | 76 | 1016.0 |
| 20260505222604 | 7 | 84 | 3.2 | 11.3 | 0.00 | 0.00 | 0.00 | 76 | 1016.0 |
| 20260505222404 | 7 | 321 | 3.2 | 11.3 | 0.00 | 0.00 | 0.00 | 76 | 1016.0 |
| 20260505222203 | 7 | 151 | 3.2 | 11.3 | 0.00 | 0.00 | 0.00 | 76 | 1016.0 |
| 20260505222007 | 7 | 308 | 3.2 | 11.3 | 0.00 | 0.00 | 0.00 | 76 | 1016.0 |
| 20260505221804 | 7 | 110 | 3.2 | 11.3 | 0.00 | 0.00 | 0.00 | 76 | 1016.0 |
| 20260505221605 | 7 | 309 | 3.2 | 12.9 | 0.00 | 0.00 | 0.00 | 76 | 1015.9 |
| 20260505221403 | 7 | 230 | 1.6 | 12.9 | 0.00 | 0.00 | 0.00 | 76 | 1016.0 |
| 20260505221205 | 7 | 51 | 3.2 | 12.9 | 0.00 | 0.00 | 0.00 | 76 | 1015.9 |
| 20260505221004 | 7 | 146 | 1.6 | 12.9 | 0.00 | 0.00 | 0.00 | 76 | 1015.9 |
| 20260505220805 | 7 | 94 | 3.2 | 12.9 | 0.00 | 0.00 | 0.00 | 76 | 1015.9 |
| 20260505220603 | 7 | 123 | 0.0 | 9.7 | 0.00 | 0.00 | 0.00 | 76 | 1015.9 |
| 20260505220203 | 7 | 326 | 1.6 | 9.7 | 0.00 | 0.00 | 0.00 | 76 | 1015.9 |
| 20260505220008 | 7 | 120 | 4.8 | 11.3 | 0.00 | 0.00 | 0.00 | 76 | 1015.9 |
| 20260505215804 | 7 | 72 | 3.2 | 11.3 | 0.00 | 0.00 | 0.00 | 76 | 1015.8 |
| 20260505215604 | 7 | 230 | 1.6 | 12.9 | 0.00 | 0.00 | 0.00 | 76 | 1015.8 |
| 20260505215403 | 7 | 326 | 4.8 | 14.5 | 0.00 | 0.00 | 0.00 | 76 | 1015.8 |
| 20260505215203 | 7 | 98 | 4.8 | 14.5 | 0.00 | 0.00 | 0.00 | 76 | 1015.9 |
| 20260505215004 | 7 | 58 | 3.2 | 14.5 | 0.00 | 0.00 | 0.00 | 76 | 1015.8 |
| 20260505214603 | 7 | 136 | 3.2 | 11.3 | 0.00 | 0.00 | 0.00 | 75 | 1015.9 |
| 20260505214403 | 7 | 110 | 4.8 | 11.3 | 0.00 | 0.00 | 0.00 | 75 | 1015.8 |
| 20260505214204 | 7 | 86 | 6.4 | 11.3 | 0.00 | 0.00 | 0.00 | 75 | 1015.7 |
| 20260505213803 | 7 | 7 | 1.6 | 16.1 | 0.00 | 0.00 | 0.00 | 75 | 1015.8 |
| 20260505213603 | 8 | 56 | 3.2 | 16.1 | 0.00 | 0.00 | 0.00 | 75 | 1015.7 |
| 20260505213403 | 8 | 80 | 1.6 | 16.1 | 0.00 | 0.00 | 0.00 | 75 | 1015.8 |
| 20260505213203 | 8 | 194 | 3.2 | 16.1 | 0.00 | 0.00 | 0.00 | 75 | 1015.7 |
| 20260505213004 | 8 | 79 | 1.6 | 6.4 | 0.00 | 0.00 | 0.00 | 75 | 1015.7 |
| 20260505212803 | 8 | 156 | 1.6 | 6.4 | 0.00 | 0.00 | 0.00 | 75 | 1015.7 |
| 20260505212603 | 8 | 71 | 0.0 | 6.4 | 0.00 | 0.00 | 0.00 | 75 | 1015.8 |
| 20260505212403 | 8 | 31 | 1.6 | 6.4 | 0.00 | 0.00 | 0.00 | 75 | 1015.8 |
| 20260505212206 | 8 | 84 | 1.6 | 9.7 | 0.00 | 0.00 | 0.00 | 75 | 1015.7 |
| 20260505211805 | 8 | 140 | 1.6 | 11.3 | 0.00 | 0.00 | 0.00 | 75 | 1015.8 |
| 20260505211405 | 8 | 58 | 3.2 | 16.1 | 0.00 | 0.00 | 0.00 | 75 | 1015.7 |
| 20260505211204 | 8 | 259 | 3.2 | 16.1 | 0.00 | 0.00 | 0.00 | 75 | 1015.8 |
| 20260505211006 | 8 | 19 | 3.2 | 16.1 | 0.00 | 0.00 | 0.00 | 75 | 1015.7 |
| 20260505210803 | 8 | 335 | 6.4 | 16.1 | 0.00 | 0.00 | 0.00 | 75 | 1015.8 |
| 20260505210605 | 8 | 347 | 1.6 | 9.7 | 0.00 | 0.00 | 0.00 | 76 | 1015.7 |
| 20260505210403 | 8 | 77 | 3.2 | 9.7 | 0.00 | 0.00 | 0.00 | 75 | 1015.8 |
| 20260505210205 | 8 | 136 | 3.2 | 9.7 | 0.00 | 0.00 | 0.00 | 75 | 1015.7 |
| 20260505210007 | 8 | 155 | 0.0 | 9.7 | 0.00 | 0.00 | 0.00 | 75 | 1015.8 |
| 20260505205603 | 8 | 101 | 1.6 | 9.7 | 0.00 | 0.00 | 0.00 | 75 | 1015.8 |
| 20260505205403 | 8 | 309 | 1.6 | 11.3 | 0.00 | 0.00 | 0.00 | 75 | 1015.7 |
| 20260505205004 | 8 | 141 | 0.0 | 11.3 | 0.00 | 0.00 | 0.00 | 75 | 1015.7 |
| 20260505204803 | 8 | 152 | 4.8 | 11.3 | 0.00 | 0.00 | 0.00 | 75 | 1015.6 |
| 20260505204604 | 8 | 305 | 1.6 | 9.7 | 0.00 | 0.00 | 0.00 | 75 | 1015.7 |
| 20260505203803 | 8 | 144 | 3.2 | 8.0 | 0.00 | 0.00 | 0.00 | 75 | 1015.6 |
| 20260505203603 | 8 | 158 | 3.2 | 8.0 | 0.00 | 0.00 | 0.00 | 75 | 1015.7 |
| 20260505203203 | 8 | 350 | 3.2 | 8.0 | 0.00 | 0.00 | 0.00 | 75 | 1015.7 |
| 20260505203004 | 8 | 82 | 3.2 | 9.7 | 0.00 | 0.00 | 0.00 | 75 | 1015.6 |
| 20260505202803 | 8 | 258 | 0.0 | 9.7 | 0.00 | 0.00 | 0.00 | 75 | 1015.6 |
| 20260505202405 | 8 | 101 | 3.2 | 12.9 | 0.00 | 0.00 | 0.00 | 75 | 1015.6 |
| 20260505202204 | 8 | 175 | 1.6 | 12.9 | 0.00 | 0.00 | 0.00 | 75 | 1015.6 |
| 20260505202004 | 8 | 79 | 1.6 | 12.9 | 0.00 | 0.00 | 0.00 | 75 | 1015.7 |
| 20260505201804 | 8 | 158 | 3.2 | 12.9 | 0.00 | 0.00 | 0.00 | 74 | 1015.5 |
| 20260505201405 | 8 | 20 | 1.6 | 11.3 | 0.00 | 0.00 | 0.00 | 74 | 1015.5 |
| 20260505201203 | 8 | 130 | 3.2 | 11.3 | 0.00 | 0.00 | 0.00 | 74 | 1015.5 |
| 20260505201006 | 8 | 3 | 3.2 | 12.9 | 0.00 | 0.00 | 0.00 | 74 | 1015.5 |
| 20260505200803 | 8 | 83 | 1.6 | 12.9 | 0.00 | 0.00 | 0.00 | 75 | 1015.5 |
| 20260505200605 | 8 | 150 | 3.2 | 12.9 | 0.00 | 0.00 | 0.00 | 75 | 1015.5 |
| 20260505200205 | 8 | 40 | 4.8 | 11.3 | 0.00 | 0.00 | 0.00 | 75 | 1015.3 |
| 20260505200007 | 8 | 313 | 4.8 | 14.5 | 0.00 | 0.00 | 0.00 | 76 | 1015.3 |
| 20260505195805 | 8 | 141 | 1.6 | 14.5 | 0.00 | 0.00 | 0.00 | 76 | 1015.4 |
| 20260505195604 | 8 | 82 | 3.2 | 14.5 | 0.00 | 0.00 | 0.00 | 76 | 1015.3 |
| 20260505195405 | 8 | 70 | 4.8 | 14.5 | 0.00 | 0.00 | 0.00 | 76 | 1015.3 |
| 20260505195203 | 8 | 129 | 3.2 | 20.9 | 0.00 | 0.00 | 0.00 | 76 | 1015.2 |
| 20260505195011 | 8 | 148 | 4.8 | 20.9 | 0.00 | 0.00 | 0.00 | 76 | 1015.4 |
| 20260505194803 | 8 | 137 | 3.2 | 20.9 | 0.00 | 0.00 | 0.00 | 77 | 1015.2 |
| 20260505194605 | 9 | 110 | 4.8 | 20.9 | 0.00 | 0.00 | 0.00 | 77 | 1015.3 |
| 20260505194205 | 9 | 62 | 1.6 | 9.7 | 0.00 | 0.00 | 0.00 | 77 | 1015.3 |
| 20260505194004 | 9 | 91 | 1.6 | 9.7 | 0.00 | 0.00 | 0.00 | 77 | 1015.2 |
| 20260505193805 | 9 | 78 | 1.6 | 9.7 | 0.00 | 0.00 | 0.00 | 77 | 1015.2 |
| 20260505193404 | 9 | 139 | 1.6 | 12.9 | 0.00 | 0.00 | 0.00 | 77 | 1015.1 |
| 20260505193203 | 9 | 115 | 0.0 | 12.9 | 0.00 | 0.00 | 0.00 | 77 | 1015.1 |
| 20260505193006 | 9 | 32 | 3.2 | 12.9 | 0.00 | 0.00 | 0.00 | 77 | 1015.0 |
| 20260505192803 | 9 | 61 | 1.6 | 11.3 | 0.00 | 0.00 | 0.00 | 77 | 1015.0 |
| 20260505192605 | 9 | 104 | 0.0 | 9.7 | 0.00 | 0.00 | 0.00 | 77 | 1015.0 |
| 20260505192403 | 9 | 126 | 3.2 | 12.9 | 0.00 | 0.00 | 0.00 | 77 | 1015.0 |
| 20260505192203 | 9 | 86 | 3.2 | 12.9 | 0.00 | 0.00 | 0.00 | 77 | 1015.0 |
| 20260505192006 | 9 | 86 | 4.8 | 12.9 | 0.00 | 0.00 | 0.00 | 77 | 1015.0 |
| 20260505191803 | 9 | 87 | 4.8 | 12.9 | 0.00 | 0.00 | 0.00 | 76 | 1015.0 |
| 20260505191604 | 9 | 108 | 4.8 | 11.3 | 0.00 | 0.00 | 0.00 | 76 | 1014.9 |
| 20260505191403 | 9 | 50 | 4.8 | 11.3 | 0.00 | 0.00 | 0.00 | 76 | 1014.9 |
| 20260505191204 | 9 | 88 | 3.2 | 11.3 | 0.00 | 0.00 | 0.00 | 77 | 1014.9 |
| 20260505190805 | 10 | 359 | 4.8 | 11.3 | 0.00 | 0.00 | 0.00 | 76 | 1014.9 |
| 20260505190405 | 10 | 73 | 4.8 | 12.9 | 0.00 | 0.00 | 0.00 | 76 | 1014.9 |
| 20260505190204 | 10 | 92 | 1.6 | 12.9 | 0.00 | 0.00 | 0.00 | 76 | 1014.9 |
| 20260505190009 | 10 | 23 | 4.8 | 12.9 | 0.00 | 0.00 | 0.00 | 75 | 1014.8 |
| 20260505185803 | 10 | 94 | 1.6 | 9.7 | 0.00 | 0.00 | 0.00 | 75 | 1014.8 |
| 20260505185204 | 10 | 84 | 3.2 | 9.7 | 0.00 | 0.00 | 0.00 | 75 | 1014.8 |
| 20260505185004 | 10 | 82 | 1.6 | 11.3 | 0.00 | 0.00 | 0.00 | 75 | 1014.7 |
| 20260505184803 | 10 | 305 | 3.2 | 11.3 | 0.00 | 0.00 | 0.00 | 75 | 1014.8 |
| 20260505184603 | 10 | 32 | 1.6 | 11.3 | 0.00 | 0.00 | 0.00 | 76 | 1014.7 |
| 20260505184403 | 10 | 263 | 1.6 | 11.3 | 0.00 | 0.00 | 0.00 | 76 | 1014.8 |
| 20260505184203 | 10 | 60 | 3.2 | 11.3 | 0.00 | 0.00 | 0.00 | 76 | 1014.6 |
| 20260505184004 | 10 | 84 | 0.0 | 8.0 | 0.00 | 0.00 | 0.00 | 76 | 1014.7 |
| 20260505183803 | 10 | 106 | 1.6 | 9.7 | 0.00 | 0.00 | 0.00 | 76 | 1014.8 |
| 20260505183603 | 10 | 288 | 1.6 | 9.7 | 0.00 | 0.00 | 0.00 | 76 | 1014.6 |
| 20260505183403 | 10 | 321 | 4.8 | 9.7 | 0.00 | 0.00 | 0.00 | 75 | 1014.6 |
| 20260505183203 | 10 | 98 | 3.2 | 9.7 | 0.00 | 0.00 | 0.00 | 75 | 1014.6 |
| 20260505183004 | 10 | 94 | 1.6 | 8.0 | 0.00 | 0.00 | 0.00 | 76 | 1014.6 |
| 20260505182804 | 10 | 112 | 1.6 | 8.0 | 0.00 | 0.00 | 0.00 | 75 | 1014.5 |
| 20260505182603 | 10 | 15 | 1.6 | 6.4 | 0.00 | 0.00 | 0.00 | 75 | 1014.6 |
| 20260505182403 | 10 | 72 | 1.6 | 6.4 | 0.00 | 0.00 | 0.00 | 75 | 1014.7 |
| 20260505182206 | 10 | 340 | 3.2 | 6.4 | 0.00 | 0.00 | 0.00 | 75 | 1014.6 |
| 20260505181804 | 10 | 27 | 1.6 | 8.0 | 0.00 | 0.00 | 0.00 | 75 | 1014.6 |
| 20260505181603 | 10 | 41 | 1.6 | 8.0 | 0.00 | 0.00 | 0.00 | 75 | 1014.5 |
| 20260505181405 | 10 | 336 | 1.6 | 8.0 | 0.00 | 0.00 | 0.00 | 74 | 1014.5 |
| 20260505181204 | 10 | 7 | 0.0 | 8.0 | 0.00 | 0.00 | 0.00 | 74 | 1014.6 |
| 20260505181006 | 10 | 89 | 1.6 | 8.0 | 0.00 | 0.00 | 0.00 | 74 | 1014.5 |
| 20260505180804 | 10 | 167 | 0.0 | 8.0 | 0.00 | 0.00 | 0.00 | 74 | 1014.5 |
| 20260505180605 | 10 | 101 | 1.6 | 11.3 | 0.00 | 0.00 | 0.00 | 73 | 1014.5 |
| 20260505180404 | 10 | 49 | 1.6 | 14.5 | 0.00 | 0.00 | 0.00 | 74 | 1014.6 |
| 20260505180204 | 10 | 46 | 1.6 | 14.5 | 0.00 | 0.00 | 0.00 | 73 | 1014.6 |
| 20260505180007 | 10 | 47 | 3.2 | 14.5 | 0.00 | 0.00 | 0.00 | 73 | 1014.6 |
| 20260505175803 | 11 | 53 | 4.8 | 14.5 | 0.00 | 0.00 | 0.00 | 73 | 1014.5 |
| 20260505175603 | 11 | 93 | 3.2 | 12.9 | 0.00 | 0.00 | 0.00 | 74 | 1014.6 |
| 20260505175403 | 11 | 150 | 6.4 | 12.9 | 0.00 | 0.00 | 0.00 | 74 | 1014.5 |
| 20260505175203 | 11 | 347 | 1.6 | 12.9 | 0.00 | 0.00 | 0.00 | 75 | 1014.5 |
| 20260505175004 | 11 | 90 | 3.2 | 12.9 | 0.00 | 0.00 | 0.00 | 75 | 1014.5 |
| 20260505174803 | 11 | 98 | 3.2 | 9.7 | 0.00 | 0.00 | 0.00 | 75 | 1014.6 |
| 20260505174404 | 11 | 103 | 1.6 | 9.7 | 0.00 | 0.00 | 0.00 | 76 | 1014.4 |
| 20260505173804 | 11 | 61 | 3.2 | 8.0 | 0.00 | 0.00 | 0.00 | 75 | 1014.4 |
| 20260505173604 | 11 | 352 | 3.2 | 8.0 | 0.00 | 0.00 | 0.00 | 74 | 1014.4 |
| 20260505173203 | 11 | 350 | 1.6 | 8.0 | 0.00 | 0.00 | 0.00 | 74 | 1014.4 |
| 20260505173004 | 11 | 81 | 1.6 | 8.0 | 0.00 | 0.00 | 0.00 | 74 | 1014.3 |
| 20260505172804 | 11 | 79 | 3.2 | 8.0 | 0.00 | 0.00 | 0.00 | 74 | 1014.4 |
| 20260505172605 | 11 | 12 | 4.8 | 8.0 | 0.00 | 0.00 | 0.00 | 73 | 1014.3 |
| 20260505172005 | 11 | 23 | 1.6 | 11.3 | 0.00 | 0.00 | 0.00 | 72 | 1014.4 |
| 20260505171604 | 11 | 312 | 4.8 | 12.9 | 0.00 | 0.00 | 0.00 | 72 | 1014.4 |
| 20260505171404 | 11 | 340 | 4.8 | 12.9 | 0.00 | 0.00 | 0.00 | 71 | 1014.4 |
| 20260505171204 | 11 | 328 | 3.2 | 12.9 | 0.00 | 0.00 | 0.00 | 71 | 1014.4 |
| 20260505171007 | 11 | 310 | 4.8 | 12.9 | 0.00 | 0.00 | 0.00 | 71 | 1014.5 |
| 20260505170804 | 11 | 338 | 4.8 | 12.9 | 0.00 | 0.00 | 0.00 | 71 | 1014.5 |
| 20260505170606 | 12 | 30 | 4.8 | 16.1 | 0.00 | 0.00 | 0.00 | 71 | 1014.4 |
| 20260505170403 | 12 | 352 | 4.8 | 16.1 | 0.00 | 0.00 | 0.00 | 70 | 1014.4 |
| 20260505170205 | 12 | 56 | 6.4 | 16.1 | 0.00 | 0.00 | 0.00 | 70 | 1014.4 |
| 20260505165805 | 12 | 261 | 3.2 | 14.5 | 0.00 | 0.00 | 0.00 | 69 | 1014.5 |
| 20260505165604 | 12 | 354 | 4.8 | 14.5 | 0.00 | 0.00 | 0.00 | 69 | 1014.4 |
| 20260505165204 | 12 | 341 | 4.8 | 14.5 | 0.00 | 0.00 | 0.00 | 69 | 1014.4 |
| 20260505165007 | 12 | 315 | 3.2 | 12.9 | 0.00 | 0.00 | 0.00 | 69 | 1014.4 |
| 20260505164804 | 12 | 210 | 4.8 | 12.9 | 0.00 | 0.00 | 0.00 | 68 | 1014.3 |
| 20260505164606 | 12 | 345 | 3.2 | 8.0 | 0.00 | 0.00 | 0.00 | 68 | 1014.4 |
| 20260505164404 | 12 | 342 | 3.2 | 8.0 | 0.00 | 0.00 | 0.00 | 69 | 1014.3 |
| 20260505164004 | 12 | 267 | 3.2 | 9.7 | 0.00 | 0.00 | 0.00 | 69 | 1014.4 |
| 20260505163805 | 12 | 335 | 3.2 | 9.7 | 0.00 | 0.00 | 0.00 | 69 | 1014.4 |
| 20260505163603 | 12 | 18 | 3.2 | 12.9 | 0.00 | 0.00 | 0.00 | 69 | 1014.4 |
| 20260505163406 | 12 | 274 | 4.8 | 12.9 | 0.00 | 0.00 | 0.00 | 69 | 1014.4 |
| 20260505163203 | 12 | 229 | 3.2 | 12.9 | 0.00 | 0.00 | 0.00 | 69 | 1014.3 |
| 20260505163009 | 12 | 342 | 4.8 | 12.9 | 0.00 | 0.00 | 0.00 | 68 | 1014.3 |
| 20260505162804 | 12 | 300 | 1.6 | 9.7 | 0.00 | 0.00 | 0.00 | 69 | 1014.3 |
| 20260505162605 | 12 | 357 | 3.2 | 9.7 | 0.00 | 0.00 | 0.00 | 68 | 1014.3 |
| 20260505162204 | 12 | 32 | 3.2 | 9.7 | 0.00 | 0.00 | 0.00 | 68 | 1014.3 |
| 20260505162004 | 12 | 340 | 3.2 | 9.7 | 0.00 | 0.00 | 0.00 | 68 | 1014.3 |
| 20260505161804 | 12 | 355 | 1.6 | 9.7 | 0.00 | 0.00 | 0.00 | 69 | 1014.3 |
| 20260505161604 | 12 | 299 | 1.6 | 11.3 | 0.00 | 0.00 | 0.00 | 69 | 1014.3 |
| 20260505161005 | 12 | 235 | 3.2 | 11.3 | 0.00 | 0.00 | 0.00 | 69 | 1014.3 |
| 20260505160803 | 12 | 358 | 3.2 | 11.3 | 0.00 | 0.00 | 0.00 | 70 | 1014.3 |
| 20260505160603 | 12 | 354 | 1.6 | 9.7 | 0.00 | 0.00 | 0.00 | 69 | 1014.3 |
| 20260505160403 | 12 | 284 | 3.2 | 9.7 | 0.00 | 0.00 | 0.00 | 69 | 1014.2 |
| 20260505160203 | 12 | 352 | 3.2 | 9.7 | 0.00 | 0.00 | 0.00 | 69 | 1014.3 |
| 20260505153205 | 13 | 337 | 1.6 | 8.0 | 0.00 | 0.00 | 0.00 | 63 | 1014.3 |
| 20260505153005 | 13 | 319 | 0.0 | 8.0 | 0.00 | 0.00 | 0.00 | 64 | 1014.3 |
| 20260505152805 | 13 | 342 | 3.2 | 8.0 | 0.00 | 0.00 | 0.00 | 62 | 1014.2 |
| 20260505152404 | 13 | 13 | 1.6 | 8.0 | 0.00 | 0.00 | 0.00 | 62 | 1014.3 |
| 20260505152203 | 13 | 25 | 1.6 | 8.0 | 0.00 | 0.00 | 0.00 | 61 | 1014.3 |
| 20260505152006 | 13 | 11 | 4.8 | 8.0 | 0.00 | 0.00 | 0.00 | 61 | 1014.3 |
| 20260505151803 | 13 | 342 | 3.2 | 8.0 | 0.00 | 0.00 | 0.00 | 63 | 1014.3 |
| 20260505151605 | 13 | 25 | 1.6 | 4.8 | 0.00 | 0.00 | 0.00 | 64 | 1014.3 |
| 20260505151205 | 13 | 276 | 1.6 | 8.0 | 0.00 | 0.00 | 0.00 | 64 | 1014.3 |
| 20260505151004 | 13 | 25 | 1.6 | 8.0 | 0.00 | 0.00 | 0.00 | 64 | 1014.2 |
| 20260505150604 | 13 | 70 | 1.6 | 9.7 | 0.00 | 0.00 | 0.00 | 63 | 1014.3 |
| 20260505150405 | 13 | 266 | 3.2 | 9.7 | 0.00 | 0.00 | 0.00 | 64 | 1014.3 |
| 20260505150204 | 13 | 325 | 1.6 | 9.7 | 0.00 | 0.00 | 0.00 | 65 | 1014.3 |
| 20260505140403 | 12 | 345 | 3.2 | 11.3 | 0.00 | 0.00 | 0.00 | 67 | 1014.5 |
| 20260505140204 | 12 | 1 | 3.2 | 11.3 | 0.00 | 0.00 | 0.00 | 67 | 1014.4 |
| 20260505125003 | 11 | 310 | 1.6 | 8.0 | 0.00 | 0.00 | 0.00 | 73 | 1014.8 |
| 20260505124603 | 11 | 332 | 1.6 | 8.0 | 0.00 | 0.00 | 0.00 | 73 | 1014.7 |
| 20260505124403 | 11 | 309 | 4.8 | 11.3 | 0.00 | 0.00 | 0.00 | 73 | 1014.7 |
| 20260505124202 | 11 | 82 | 4.8 | 11.3 | 0.00 | 0.00 | 0.00 | 73 | 1014.7 |
| 20260505124003 | 11 | 20 | 1.6 | 11.3 | 0.00 | 0.00 | 0.00 | 74 | 1014.8 |
| 20260505123602 | 11 | 7 | 4.8 | 14.5 | 0.00 | 0.00 | 0.00 | 74 | 1014.8 |
| 20260505123403 | 11 | 289 | 3.2 | 14.5 | 0.00 | 0.00 | 0.00 | 74 | 1014.7 |
| 20260505123202 | 11 | 334 | 6.4 | 14.5 | 0.00 | 0.00 | 0.00 | 73 | 1014.7 |
| 20260505123004 | 11 | 332 | 4.8 | 14.5 | 0.00 | 0.00 | 0.00 | 73 | 1014.8 |
| 20260505122804 | 11 | 344 | 4.8 | 11.3 | 0.00 | 0.00 | 0.00 | 74 | 1014.8 |
| 20260505122604 | 11 | 319 | 1.6 | 9.7 | 0.00 | 0.00 | 0.00 | 74 | 1014.8 |
| 20260505122402 | 11 | 154 | 1.6 | 9.7 | 0.00 | 0.00 | 0.00 | 75 | 1014.7 |
| 20260505122204 | 11 | 342 | 1.6 | 9.7 | 0.00 | 0.00 | 0.00 | 75 | 1014.8 |
| 20260505122003 | 11 | 23 | 3.2 | 9.7 | 0.00 | 0.00 | 0.00 | 75 | 1014.8 |
| 20260505121804 | 11 | 288 | 4.8 | 9.7 | 0.00 | 0.00 | 0.00 | 74 | 1014.8 |
| 20260505121602 | 11 | 1 | 3.2 | 14.5 | 0.00 | 0.00 | 0.00 | 74 | 1014.8 |
| 20260505121404 | 11 | 345 | 3.2 | 14.5 | 0.00 | 0.00 | 0.00 | 74 | 1014.8 |
| 20260505121202 | 11 | 345 | 3.2 | 14.5 | 0.00 | 0.00 | 0.00 | 73 | 1014.9 |
| 20260505121005 | 11 | 352 | 4.8 | 14.5 | 0.00 | 0.00 | 0.00 | 73 | 1014.8 |
| 20260505120802 | 11 | 22 | 6.4 | 14.5 | 0.00 | 0.00 | 0.00 | 73 | 1014.8 |
| 20260505120604 | 11 | 343 | 3.2 | 11.3 | 0.00 | 0.00 | 0.00 | 73 | 1014.9 |
| 20260505120204 | 11 | 17 | 4.8 | 11.3 | 0.00 | 0.00 | 0.00 | 73 | 1014.9 |
| 20260505120008 | 11 | 27 | 6.4 | 11.3 | 0.00 | 0.00 | 0.00 | 72 | 1014.9 |
| 20260505115804 | 11 | 305 | 4.8 | 11.3 | 0.00 | 0.00 | 0.00 | 74 | 1014.9 |
| 20260505115603 | 11 | 333 | 1.6 | 11.3 | 0.00 | 0.00 | 0.00 | 74 | 1014.9 |
| 20260505115404 | 11 | 6 | 4.8 | 11.3 | 0.00 | 0.00 | 0.00 | 73 | 1014.8 |
| 20260505115202 | 11 | 56 | 4.8 | 11.3 | 0.00 | 0.00 | 0.00 | 72 | 1014.9 |
| 20260505115005 | 11 | 1 | 4.8 | 11.3 | 0.00 | 0.00 | 0.00 | 72 | 1014.9 |
| 20260505114604 | 11 | 248 | 3.2 | 8.0 | 0.00 | 0.00 | 0.00 | 71 | 1014.7 |
| 20260505114402 | 11 | 348 | 3.2 | 8.0 | 0.00 | 0.00 | 0.00 | 71 | 1014.8 |
| 20260505114204 | 11 | 358 | 4.8 | 8.0 | 0.00 | 0.00 | 0.00 | 70 | 1014.8 |
| 20260505114003 | 11 | 349 | 3.2 | 8.0 | 0.00 | 0.00 | 0.00 | 71 | 1014.9 |
| 20260505113804 | 11 | 305 | 1.6 | 8.0 | 0.00 | 0.00 | 0.00 | 71 | 1014.9 |
| 20260505113602 | 11 | 354 | 3.2 | 8.0 | 0.00 | 0.00 | 0.00 | 71 | 1014.9 |
| 20260505113404 | 11 | 304 | 3.2 | 8.0 | 0.00 | 0.00 | 0.00 | 71 | 1014.9 |
| 20260505113202 | 11 | 345 | 3.2 | 9.7 | 0.00 | 0.00 | 0.00 | 72 | 1015.0 |
| 20260505113006 | 11 | 88 | 1.6 | 14.5 | 0.00 | 0.00 | 0.00 | 72 | 1015.0 |
| 20260505112802 | 11 | 316 | 1.6 | 14.5 | 0.00 | 0.00 | 0.00 | 73 | 1015.0 |
| 20260505112604 | 11 | 360 | 4.8 | 14.5 | 0.00 | 0.00 | 0.00 | 71 | 1015.0 |
| 20260505112402 | 11 | 26 | 8.0 | 14.5 | 0.00 | 0.00 | 0.00 | 71 | 1015.1 |
| 20260505112203 | 11 | 8 | 3.2 | 11.3 | 0.00 | 0.00 | 0.00 | 71 | 1015.0 |
| 20260505112003 | 11 | 331 | 4.8 | 11.3 | 0.00 | 0.00 | 0.00 | 72 | 1015.1 |
| 20260505111803 | 11 | 37 | 4.8 | 11.3 | 0.00 | 0.00 | 0.00 | 72 | 1014.9 |
| 20260505111602 | 11 | 12 | 1.6 | 6.4 | 0.00 | 0.00 | 0.00 | 73 | 1014.9 |
| 20260505111405 | 11 | 356 | 1.6 | 6.4 | 0.00 | 0.00 | 0.00 | 75 | 1014.9 |
| 20260505111202 | 10 | 7 | 0.0 | 6.4 | 0.00 | 0.00 | 0.00 | 75 | 1014.9 |
| 20260505110802 | 10 | 323 | 1.6 | 6.4 | 0.00 | 0.00 | 0.00 | 77 | 1015.0 |
| 20260505110604 | 10 | 25 | 0.0 | 6.4 | 0.00 | 0.00 | 0.00 | 77 | 1015.0 |
| 20260505110402 | 10 | 200 | 1.6 | 6.4 | 0.00 | 0.00 | 0.00 | 77 | 1015.0 |
| 20260505110202 | 10 | 326 | 1.6 | 6.4 | 0.00 | 0.00 | 0.00 | 77 | 1015.0 |
| 20260505102204 | 10 | 252 | 3.2 | 8.0 | 0.00 | 0.00 | 0.00 | 77 | 1015.2 |
| 20260505102011 | 10 | 310 | 1.6 | 9.7 | 0.00 | 0.00 | 0.00 | 77 | 1015.3 |
| 20260505101804 | 10 | 228 | 1.6 | 9.7 | 0.00 | 0.00 | 0.00 | 77 | 1015.3 |
| 20260505101602 | 10 | 233 | 3.2 | 9.7 | 0.00 | 0.00 | 0.00 | 77 | 1015.3 |
| 20260505101202 | 10 | 11 | 3.2 | 9.7 | 0.00 | 0.00 | 0.00 | 75 | 1015.3 |
| 20260505101005 | 10 | 330 | 4.8 | 9.7 | 0.00 | 0.00 | 0.00 | 74 | 1015.2 |
| 20260505100802 | 10 | 311 | 4.8 | 9.7 | 0.00 | 0.00 | 0.00 | 74 | 1015.3 |
| 20260505100603 | 10 | 314 | 3.2 | 8.0 | 0.00 | 0.00 | 0.00 | 74 | 1015.2 |
| 20260505100402 | 10 | 271 | 3.2 | 8.0 | 0.00 | 0.00 | 0.00 | 74 | 1015.3 |
| 20260505100204 | 10 | 328 | 3.2 | 8.0 | 0.00 | 0.00 | 0.00 | 73 | 1015.2 |
| 20260505100005 | 10 | 274 | 1.6 | 9.7 | 0.00 | 0.00 | 0.00 | 73 | 1015.3 |
| 20260505095803 | 10 | 335 | 1.6 | 9.7 | 0.00 | 0.00 | 0.00 | 72 | 1015.2 |
| 20260505095603 | 10 | 308 | 4.8 | 9.7 | 0.00 | 0.00 | 0.00 | 71 | 1015.2 |
| 20260505095403 | 10 | 347 | 4.8 | 9.7 | 0.00 | 0.00 | 0.00 | 71 | 1015.3 |
| 20260505095202 | 10 | 260 | 4.8 | 11.3 | 0.00 | 0.00 | 0.00 | 71 | 1015.2 |
| 20260505095003 | 11 | 29 | 3.2 | 11.3 | 0.00 | 0.00 | 0.00 | 71 | 1015.1 |
| 20260505094802 | 11 | 333 | 3.2 | 11.3 | 0.00 | 0.00 | 0.00 | 70 | 1015.3 |
| 20260505094402 | 11 | 309 | 4.8 | 11.3 | 0.00 | 0.00 | 0.00 | 70 | 1015.3 |
| 20260505094202 | 11 | 353 | 3.2 | 9.7 | 0.00 | 0.00 | 0.00 | 70 | 1015.3 |
| 20260505094003 | 11 | 327 | 3.2 | 9.7 | 0.00 | 0.00 | 0.00 | 71 | 1015.2 |
| 20260505093802 | 11 | 104 | 1.6 | 8.0 | 0.00 | 0.00 | 0.00 | 71 | 1015.2 |
| 20260505093602 | 11 | 283 | 1.6 | 8.0 | 0.00 | 0.00 | 0.00 | 71 | 1015.3 |
| 20260505093402 | 11 | 210 | 3.2 | 8.0 | 0.00 | 0.00 | 0.00 | 71 | 1015.2 |
| 20260505093003 | 11 | 158 | 1.6 | 9.7 | 0.00 | 0.00 | 0.00 | 71 | 1015.2 |
| 20260505092602 | 11 | 68 | 1.6 | 9.7 | 0.00 | 0.00 | 0.00 | 70 | 1015.2 |
| 20260505092402 | 11 | 289 | 4.8 | 9.7 | 0.00 | 0.00 | 0.00 | 70 | 1015.2 |
| 20260505092202 | 11 | 319 | 3.2 | 9.7 | 0.00 | 0.00 | 0.00 | 69 | 1015.2 |
| 20260505092003 | 11 | 218 | 3.2 | 9.7 | 0.00 | 0.00 | 0.00 | 69 | 1015.3 |
| 20260505091802 | 11 | 21 | 4.8 | 9.7 | 0.00 | 0.00 | 0.00 | 69 | 1015.3 |
| 20260505091602 | 11 | 34 | 1.6 | 6.4 | 0.00 | 0.00 | 0.00 | 69 | 1015.3 |
| 20260505091402 | 11 | 292 | 1.6 | 12.9 | 0.00 | 0.00 | 0.00 | 71 | 1015.2 |
| 20260505091202 | 11 | 248 | 3.2 | 12.9 | 0.00 | 0.00 | 0.00 | 71 | 1015.2 |
| 20260505091003 | 11 | 290 | 1.6 | 12.9 | 0.00 | 0.00 | 0.00 | 72 | 1015.3 |
| 20260505090802 | 10 | 163 | 3.2 | 12.9 | 0.00 | 0.00 | 0.00 | 71 | 1015.2 |
| 20260505090602 | 10 | 334 | 3.2 | 12.9 | 0.00 | 0.00 | 0.00 | 73 | 1015.3 |
| 20260505090402 | 10 | 303 | 3.2 | 11.3 | 0.00 | 0.00 | 0.00 | 72 | 1015.2 |
| 20260505090202 | 10 | 252 | 4.8 | 9.7 | 0.00 | 0.00 | 0.00 | 73 | 1015.2 |
| 20260505090008 | 10 | 346 | 1.6 | 8.0 | 0.00 | 0.00 | 0.00 | 76 | 1015.3 |
| 20260505085604 | 10 | 323 | 3.2 | 8.0 | 0.00 | 0.00 | 0.00 | 75 | 1015.3 |
| 20260505085402 | 10 | 345 | 1.6 | 8.0 | 0.00 | 0.00 | 0.00 | 76 | 1015.2 |
| 20260505085204 | 10 | 319 | 4.8 | 8.0 | 0.00 | 0.00 | 0.00 | 76 | 1015.3 |
| 20260505085004 | 10 | 32 | 3.2 | 8.0 | 0.00 | 0.00 | 0.00 | 77 | 1015.3 |
| 20260505084803 | 10 | 276 | 1.6 | 8.0 | 0.00 | 0.00 | 0.00 | 78 | 1015.3 |
| 20260505084603 | 10 | 320 | 3.2 | 8.0 | 0.00 | 0.00 | 0.00 | 78 | 1015.3 |
| 20260505084404 | 10 | 308 | 3.2 | 8.0 | 0.00 | 0.00 | 0.00 | 78 | 1015.4 |
| 20260505084202 | 10 | 229 | 3.2 | 8.0 | 0.00 | 0.00 | 0.00 | 79 | 1015.4 |
| 20260505084005 | 10 | 17 | 1.6 | 8.0 | 0.00 | 0.00 | 0.00 | 80 | 1015.4 |
| 20260505083802 | 10 | 7 | 1.6 | 11.3 | 0.00 | 0.00 | 0.00 | 80 | 1015.5 |
| 20260505083604 | 10 | 354 | 3.2 | 11.3 | 0.00 | 0.00 | 0.00 | 80 | 1015.5 |
| 20260505083203 | 10 | 27 | 4.8 | 11.3 | 0.00 | 0.00 | 0.00 | 80 | 1015.4 |
| 20260505083003 | 10 | 309 | 1.6 | 8.0 | 0.00 | 0.00 | 0.00 | 80 | 1015.4 |
| 20260505082602 | 10 | 328 | 3.2 | 9.7 | 0.00 | 0.00 | 0.00 | 80 | 1015.4 |
| 20260505082202 | 10 | 349 | 1.6 | 9.7 | 0.00 | 0.00 | 0.00 | 82 | 1015.4 |
| 20260505082005 | 9 | 288 | 3.2 | 11.3 | 0.00 | 0.00 | 0.00 | 83 | 1015.4 |
| 20260505081802 | 9 | 16 | 3.2 | 11.3 | 0.00 | 0.00 | 0.00 | 84 | 1015.4 |
| 20260505081604 | 9 | 338 | 1.6 | 11.3 | 0.00 | 0.00 | 0.00 | 85 | 1015.4 |
| 20260505081402 | 9 | 307 | 3.2 | 11.3 | 0.00 | 0.00 | 0.00 | 85 | 1015.4 |
| 20260505081204 | 9 | 343 | 3.2 | 11.3 | 0.00 | 0.00 | 0.00 | 87 | 1015.4 |
| 20260505081003 | 9 | 214 | 0.0 | 4.8 | 0.00 | 0.00 | 0.00 | 86 | 1015.4 |
| 20260505080804 | 9 | 288 | 1.6 | 4.8 | 0.00 | 0.00 | 0.00 | 86 | 1015.4 |
| 20260505080602 | 9 | 196 | 0.0 | 9.7 | 0.00 | 0.00 | 0.00 | 86 | 1015.4 |
| 20260505080403 | 9 | 23 | 0.0 | 9.7 | 0.00 | 0.00 | 0.00 | 86 | 1015.5 |
| 20260505075602 | 9 | 307 | 1.6 | 9.7 | 0.00 | 0.00 | 0.00 | 86 | 1015.4 |
| 20260505075403 | 9 | 316 | 3.2 | 9.7 | 0.00 | 0.00 | 0.00 | 86 | 1015.4 |
| 20260505075202 | 9 | 30 | 4.8 | 9.7 | 0.00 | 0.00 | 0.00 | 86 | 1015.4 |
| 20260505075003 | 9 | 333 | 1.6 | 4.8 | 0.00 | 0.00 | 0.00 | 86 | 1015.4 |
| 20260505074802 | 9 | 20 | 1.6 | 4.8 | 0.00 | 0.00 | 0.00 | 87 | 1015.3 |
| 20260505074202 | 8 | 347 | 0.0 | 4.8 | 0.00 | 0.00 | 0.00 | 88 | 1015.4 |
| 20260505074003 | 8 | 320 | 1.6 | 4.8 | 0.00 | 0.00 | 0.00 | 88 | 1015.4 |
| 20260505073802 | 8 | 323 | 1.6 | 3.2 | 0.00 | 0.00 | 0.00 | 89 | 1015.4 |
| 20260505073602 | 8 | 352 | 0.0 | 3.2 | 0.00 | 0.00 | 0.00 | 90 | 1015.3 |
| 20260505073402 | 8 | 211 | 0.0 | 0.0 | 0.00 | 0.00 | 0.00 | 90 | 1015.3 |
| 20260505073202 | 8 | 354 | 0.0 | 0.0 | 0.00 | 0.00 | 0.00 | 91 | 1015.3 |
| 20260505073002 | 8 | 222 | 0.0 | 0.0 | 0.00 | 0.00 | 0.00 | 91 | 1015.3 |
| 20260505072802 | 8 | 222 | 0.0 | 0.0 | 0.00 | 0.00 | 0.00 | 91 | 1015.3 |
| 20260505072602 | 8 | 222 | 0.0 | 0.0 | 0.00 | 0.00 | 0.00 | 91 | 1015.3 |
| 20260505072402 | 8 | 222 | 0.0 | 0.0 | 0.00 | 0.00 | 0.00 | 91 | 1015.4 |
| 20260505072003 | 8 | 222 | 0.0 | 0.0 | 0.00 | 0.00 | 0.00 | 91 | 1015.3 |
| 20260505071802 | 8 | 222 | 0.0 | 0.0 | 0.00 | 0.00 | 0.00 | 92 | 1015.3 |
| 20260505071602 | 8 | 222 | 0.0 | 0.0 | 0.00 | 0.00 | 0.00 | 92 | 1015.3 |
| 20260505071003 | 8 | 231 | 0.0 | 0.0 | 0.00 | 0.00 | 0.00 | 92 | 1015.4 |
| 20260505070802 | 8 | 247 | 0.0 | 0.0 | 0.00 | 0.00 | 0.00 | 92 | 1015.4 |
| 20260505070602 | 8 | 247 | 0.0 | 0.0 | 0.00 | 0.00 | 0.00 | 92 | 1015.5 |
| 20260505070404 | 7 | 247 | 0.0 | 0.0 | 0.00 | 0.00 | 0.00 | 92 | 1015.4 |
| 20260505065802 | 7 | 247 | 0.0 | 0.0 | 0.00 | 0.00 | 0.00 | 93 | 1015.5 |
| 20260505065402 | 7 | 247 | 0.0 | 0.0 | 0.00 | 0.00 | 0.00 | 93 | 1015.5 |
| 20260505065203 | 7 | 247 | 0.0 | 0.0 | 0.00 | 0.00 | 0.00 | 93 | 1015.5 |
| 20260505065003 | 7 | 247 | 0.0 | 0.0 | 0.00 | 0.00 | 0.00 | 93 | 1015.4 |
| 20260505064804 | 7 | 247 | 0.0 | 0.0 | 0.00 | 0.00 | 0.00 | 93 | 1015.5 |
| 20260505064602 | 7 | 247 | 0.0 | 0.0 | 0.00 | 0.00 | 0.00 | 93 | 1015.5 |
| 20260505064403 | 7 | 247 | 0.0 | 0.0 | 0.00 | 0.00 | 0.00 | 93 | 1015.5 |
| 20260505064201 | 7 | 248 | 0.0 | 0.0 | 0.00 | 0.00 | 0.00 | 94 | 1015.6 |
| 20260505064004 | 7 | 248 | 0.0 | 0.0 | 0.00 | 0.00 | 0.00 | 94 | 1015.5 |
| 20260505063802 | 7 | 248 | 0.0 | 0.0 | 0.00 | 0.00 | 0.00 | 94 | 1015.5 |
| 20260505063604 | 7 | 248 | 0.0 | 0.0 | 0.00 | 0.00 | 0.00 | 94 | 1015.5 |
| 20260505063402 | 7 | 248 | 0.0 | 0.0 | 0.00 | 0.00 | 0.00 | 94 | 1015.5 |
| 20260505063204 | 7 | 248 | 0.0 | 0.0 | 0.00 | 0.00 | 0.00 | 94 | 1015.5 |
| 20260505063003 | 7 | 248 | 0.0 | 0.0 | 0.00 | 0.00 | 0.00 | 94 | 1015.6 |
| 20260505062802 | 7 | 248 | 0.0 | 0.0 | 0.00 | 0.00 | 0.00 | 94 | 1015.6 |
| 20260505062602 | 7 | 248 | 0.0 | 0.0 | 0.00 | 0.00 | 0.00 | 94 | 1015.6 |
| 20260505062402 | 7 | 248 | 0.0 | 0.0 | 0.00 | 0.00 | 0.00 | 95 | 1015.6 |
| 20260505061602 | 7 | 248 | 0.0 | 0.0 | 0.00 | 0.00 | 0.00 | 95 | 1015.6 |
| 20260505061402 | 6 | 248 | 0.0 | 0.0 | 0.00 | 0.00 | 0.00 | 95 | 1015.6 |
| 20260505061202 | 6 | 248 | 0.0 | 0.0 | 0.00 | 0.00 | 0.00 | 95 | 1015.6 |
| 20260505061003 | 6 | 246 | 0.0 | 0.0 | 0.00 | 0.00 | 0.00 | 95 | 1015.6 |
| 20260505060802 | 6 | 3 | 0.0 | 1.6 | 0.00 | 0.00 | 0.00 | 95 | 1015.6 |
| 20260505060602 | 6 | 4 | 0.0 | 1.6 | 0.00 | 0.00 | 0.00 | 95 | 1015.5 |
| 20260505060405 | 6 | 4 | 0.0 | 1.6 | 0.00 | 0.00 | 0.00 | 95 | 1015.5 |
| 20260505060202 | 6 | 344 | 0.0 | 1.6 | 0.00 | 0.00 | 0.00 | 95 | 1015.6 |
| 20260505060006 | 6 | 1 | 1.6 | 1.6 | 0.00 | 0.00 | 0.00 | 95 | 1015.5 |
| 20260505055602 | 6 | 8 | 0.0 | 0.0 | 0.00 | 0.00 | 0.00 | 95 | 1015.5 |
| 20260505055403 | 6 | 8 | 0.0 | 0.0 | 0.00 | 0.00 | 0.00 | 95 | 1015.4 |
| 20260505055203 | 6 | 8 | 0.0 | 0.0 | 0.00 | 0.00 | 0.00 | 96 | 1015.5 |
| 20260505055005 | 6 | 8 | 0.0 | 0.0 | 0.00 | 0.00 | 0.00 | 96 | 1015.5 |
| 20260505054802 | 6 | 8 | 0.0 | 0.0 | 0.00 | 0.00 | 0.00 | 96 | 1015.4 |
| 20260505054603 | 6 | 8 | 0.0 | 0.0 | 0.00 | 0.00 | 0.00 | 96 | 1015.4 |
| 20260505054402 | 6 | 8 | 0.0 | 1.6 | 0.00 | 0.00 | 0.00 | 96 | 1015.3 |
| 20260505054204 | 6 | 8 | 0.0 | 1.6 | 0.00 | 0.00 | 0.00 | 96 | 1015.4 |
| 20260505054003 | 5 | 8 | 0.0 | 3.2 | 0.00 | 0.00 | 0.00 | 96 | 1015.4 |
| 20260505053804 | 5 | 8 | 0.0 | 3.2 | 0.00 | 0.00 | 0.00 | 96 | 1015.3 |
| 20260505053602 | 5 | 8 | 0.0 | 3.2 | 0.00 | 0.00 | 0.00 | 96 | 1015.3 |
| 20260505053404 | 5 | 8 | 0.0 | 4.8 | 0.00 | 0.00 | 0.00 | 96 | 1015.5 |
| 20260505053202 | 5 | 8 | 1.6 | 8.0 | 0.00 | 0.00 | 0.00 | 96 | 1015.4 |
| 20260505052802 | 5 | 298 | 0.0 | 8.0 | 0.00 | 0.00 | 0.00 | 96 | 1015.5 |
| 20260505052604 | 4 | 278 | 1.6 | 8.0 | 0.00 | 0.00 | 0.00 | 96 | 1015.6 |
| 20260505052402 | 4 | 256 | 3.2 | 8.0 | 0.00 | 0.00 | 0.00 | 96 | 1015.6 |
| 20260505052204 | 4 | 292 | 0.0 | 0.0 | 0.00 | 0.00 | 0.00 | 96 | 1015.4 |
| 20260505051804 | 4 | 342 | 0.0 | 0.0 | 0.00 | 0.00 | 0.00 | 96 | 1015.4 |
| 20260505051602 | 4 | 342 | 0.0 | 0.0 | 0.00 | 0.00 | 0.00 | 96 | 1015.4 |
| 20260505051203 | 3 | 342 | 0.0 | 0.0 | 0.00 | 0.00 | 0.00 | 96 | 1015.2 |
| 20260505051006 | 3 | 342 | 0.0 | 0.0 | 0.00 | 0.00 | 0.00 | 96 | 1015.2 |
| 20260505050802 | 3 | 342 | 0.0 | 0.0 | 0.00 | 0.00 | 0.00 | 96 | 1015.3 |
| 20260505050604 | 3 | 342 | 0.0 | 0.0 | 0.00 | 0.00 | 0.00 | 95 | 1015.2 |
| 20260505050404 | 3 | 342 | 0.0 | 0.0 | 0.00 | 0.00 | 0.00 | 95 | 1015.3 |
| 20260505050202 | 3 | 342 | 0.0 | 0.0 | 0.00 | 0.00 | 0.00 | 95 | 1015.2 |
| 20260505041602 | 3 | 342 | 0.0 | 0.0 | 0.00 | 0.00 | 0.00 | 95 | 1015.0 |
| 20260505041402 | 3 | 342 | 0.0 | 0.0 | 0.00 | 0.00 | 0.00 | 95 | 1015.0 |
| 20260505041202 | 3 | 342 | 0.0 | 0.0 | 0.00 | 0.00 | 0.00 | 95 | 1015.0 |
| 20260505040802 | 3 | 342 | 0.0 | 0.0 | 0.00 | 0.00 | 0.00 | 95 | 1015.0 |
| 20260505040402 | 3 | 342 | 0.0 | 0.0 | 0.00 | 0.00 | 0.00 | 95 | 1014.9 |
| 20260505040205 | 3 | 342 | 0.0 | 0.0 | 0.00 | 0.00 | 0.00 | 95 | 1014.9 |
| 20260505035802 | 3 | 342 | 0.0 | 0.0 | 0.00 | 0.00 | 0.00 | 94 | 1014.9 |
| 20260505035603 | 3 | 342 | 0.0 | 0.0 | 0.00 | 0.00 | 0.00 | 94 | 1015.0 |
| 20260505035402 | 3 | 342 | 0.0 | 0.0 | 0.00 | 0.00 | 0.00 | 95 | 1015.0 |
| 20260505035203 | 3 | 342 | 0.0 | 0.0 | 0.00 | 0.00 | 0.00 | 95 | 1015.0 |
| 20260505035003 | 3 | 342 | 0.0 | 0.0 | 0.00 | 0.00 | 0.00 | 95 | 1015.2 |
| 20260505034802 | 3 | 342 | 0.0 | 0.0 | 0.00 | 0.00 | 0.00 | 95 | 1015.1 |
| 20260505034603 | 3 | 342 | 0.0 | 0.0 | 0.00 | 0.00 | 0.00 | 95 | 1015.0 |
| 20260505034203 | 3 | 342 | 0.0 | 0.0 | 0.00 | 0.00 | 0.00 | 95 | 1015.1 |
| 20260505034003 | 3 | 342 | 0.0 | 0.0 | 0.00 | 0.00 | 0.00 | 95 | 1015.0 |
| 20260505033802 | 3 | 342 | 0.0 | 0.0 | 0.00 | 0.00 | 0.00 | 95 | 1015.0 |
| 20260505033402 | 3 | 342 | 0.0 | 0.0 | 0.00 | 0.00 | 0.00 | 95 | 1015.0 |
| 20260505033204 | 3 | 342 | 0.0 | 0.0 | 0.00 | 0.00 | 0.00 | 95 | 1015.1 |
| 20260505033003 | 3 | 342 | 0.0 | 0.0 | 0.00 | 0.00 | 0.00 | 95 | 1015.0 |
| 20260505032804 | 3 | 342 | 0.0 | 0.0 | 0.00 | 0.00 | 0.00 | 95 | 1014.9 |
| 20260505032603 | 3 | 342 | 0.0 | 0.0 | 0.00 | 0.00 | 0.00 | 95 | 1015.1 |
| 20260505032404 | 3 | 342 | 0.0 | 0.0 | 0.00 | 0.00 | 0.00 | 95 | 1015.1 |
| 20260505032202 | 3 | 342 | 0.0 | 0.0 | 0.00 | 0.00 | 0.00 | 95 | 1015.0 |